Reno, NV

5:35 AM PDT on May 28, 2017 (GMT -0700)
Reno-Tahoe International

Weather History for KRNO - January, 2013

Change the Weather History Date:

Thursday, January 3, 2013

  Actual Average Record
Temperature  
Mean Temperature 21 °F 34 °F  
Max Temperature 31 °F 45 °F 66 °F (2012)
Min Temperature 10 °F 24 °F -11 °F (1971)
Degree Days  
Heating Degree Days 44 30  
Month to date heating degree days 130 92  
Since 1 July heating degree days 1806 2116  
Cooling Degree Days 0 0  
Month to date cooling degree days 0 0  
Year to date cooling degree days 0 0  
Moisture  
Dew Point 11 °F    
Average Humidity 67    
Maximum Humidity 84    
Minimum Humidity 49    
Precipitation  
Precipitation 0.00 in 0.04 in 1.76 in (1916)
Month to date precipitation 0.00 0.11  
Year to date precipitation 0.00 0.11  
Snow  
Snow 0.00 in 0.20 in 5.00 in (1929)
Month to date snowfall 0.0 0.7  
Since 1 July snowfall 8.0 9.1  
Snow Depth 2.00 in    
Sea Level Pressure  
Sea Level Pressure 30.42 in    
Wind  
Wind Speed 1 mph (WSW)    
Max Wind Speed 8 mph    
Max Gust Speed 12 mph    
Visibility 10 miles    
Events      
T = Trace of Precipitation, MM = Missing Value Source: NWS Daily Summary

Daily Weather History Graph

Daily Weather History Graph

Search for Another Location

Airport or City:

Trip Planner

Search our weather history database for the weather conditions in past years. The results will help you decide how hot, cold, wet, or windy it might be!

Date:

Astronomy

Jan. 03, 2013 Rise Set
Actual Time 7:19 AM PST 4:48 PM PST
Civil Twilight 6:49 AM PST 5:18 PM PST
Nautical Twilight 6:16 AM PST 5:51 PM PST
Astronomical Twilight 5:43 AM PST 6:24 PM PST
Moon 11:27 PM PST (1/3) 10:35 AM PST (1/3)
Length of Visible Light 10h 28m
Length of Day
9h 28m
Waning Gibbous, 64% of the Moon is Illuminated
Jan 3
Waning Gibbous
Jan 4
Last Quarter
Jan 11
New
Jan 18
First Quarter
Jan 26
Full

Hourly Weather History & Observations

Time (PST) Temp. Windchill Dew Point Humidity Pressure Visibility Wind Dir Wind Speed Gust Speed Precip Events Conditions
12:55 AM 16.0 °F 10.4 °F 9.0 °F 74% 30.40 in 10.0 mi WNW 3.5 mph - N/A   Clear
1:55 AM 15.1 °F 9.4 °F 8.1 °F 74% 30.40 in 10.0 mi West 3.5 mph - N/A   Clear
2:55 AM 12.9 °F - 8.1 °F 81% 30.41 in 10.0 mi Calm Calm - N/A   Clear
3:55 AM 12.9 °F 6.9 °F 8.1 °F 81% 30.38 in 10.0 mi WNW 3.5 mph - N/A   Clear
4:55 AM 12.0 °F - 7.0 °F 80% 30.40 in 10.0 mi Calm Calm - N/A   Clear
5:55 AM 12.9 °F - 7.0 °F 77% 30.42 in 10.0 mi Calm Calm - N/A   Clear
6:55 AM 12.0 °F 5.9 °F 6.1 °F 77% 30.43 in 10.0 mi West 3.5 mph - N/A   Clear
7:55 AM 12.0 °F - 7.0 °F 80% 30.44 in 10.0 mi Calm Calm - N/A   Clear
8:55 AM 16.0 °F - 8.1 °F 71% 30.45 in 10.0 mi Calm Calm - N/A   Partly Cloudy
9:55 AM 19.9 °F - 10.9 °F 68% 30.46 in 9.0 mi Calm Calm - N/A   Partly Cloudy
10:55 AM 21.0 °F - 10.9 °F 65% 30.45 in 9.0 mi Calm Calm - N/A   Clear
11:55 AM 24.1 °F - 12.0 °F 60% 30.42 in 10.0 mi Calm Calm - N/A   Partly Cloudy
12:55 PM 25.0 °F - 12.9 °F 60% 30.40 in 10.0 mi Calm Calm - N/A   Partly Cloudy
1:55 PM 28.0 °F - 14.0 °F 56% 30.37 in 10.0 mi Calm Calm - N/A   Clear
2:55 PM 30.0 °F - 14.0 °F 51% 30.39 in 10.0 mi Calm Calm - N/A   Partly Cloudy
3:55 PM 30.0 °F 26.5 °F 15.1 °F 54% 30.39 in 10.0 mi ENE 3.5 mph - N/A   Partly Cloudy
4:55 PM 28.0 °F 24.2 °F 15.1 °F 58% 30.40 in 10.0 mi SE 3.5 mph - N/A   Partly Cloudy
5:55 PM 24.1 °F 17.0 °F 14.0 °F 65% 30.41 in 10.0 mi South 5.8 mph - N/A   Partly Cloudy
6:55 PM 24.1 °F - 14.0 °F 65% 30.43 in 10.0 mi Calm Calm - N/A   Clear
7:55 PM 21.9 °F - 14.0 °F 72% 30.46 in 10.0 mi Calm Calm - N/A   Clear
8:55 PM 21.0 °F - 14.0 °F 74% 30.45 in 10.0 mi Calm Calm - N/A   Clear
9:55 PM 19.9 °F - 12.9 °F 74% 30.46 in 10.0 mi Calm Calm - N/A   Clear
10:55 PM 18.0 °F - 12.0 °F 78% 30.46 in 10.0 mi Calm Calm - N/A   Clear
11:55 PM 18.0 °F - 10.9 °F 74% 30.46 in 8.0 mi Calm Calm - N/A   Clear